GW0774 Weather Reports


time (UTC)temp
C
wind
direction
speed
KPH
gust
KPH
rain 1hr
cm
rain 24hr
cm
rain mn
cm
humidity
%
barometer
mb
20260506062040 14 270 1.6 3.2 0.00 0.00 0.00 92 1025.4
20260506061549 14 270 1.6 4.8 0.00 0.00 0.00 92 1025.4
20260506061041 15 282 1.6 4.8 0.00 0.00 0.00 92 1025.4
20260506060540 15 232 1.6 4.8 0.00 0.00 0.00 91 1025.4
20260506051038 16 234 4.8 8.0 0.00 0.00 0.00 87 1025.4
20260506050538 16 241 6.4 9.7 0.00 0.00 0.00 86 1025.5
20260506050114 16 240 6.4 9.7 0.00 0.00 0.00 86 1025.5
20260506045039 16 239 6.4 11.3 0.00 0.00 0.00 85 1025.6
20260506044548 16 236 6.4 12.9 0.00 0.00 0.00 84 1025.6
20260506044039 17 238 6.4 12.9 0.00 0.00 0.00 83 1025.6
20260506043536 17 242 6.4 14.5 0.00 0.00 0.00 82 1025.7
20260506043050 17 234 8.0 16.1 0.00 0.00 0.00 80 1025.6
20260506042540 17 243 9.7 16.1 0.00 0.00 0.00 80 1025.5
20260506042042 18 230 9.7 14.5 0.00 0.00 0.00 79 1025.6
20260506041558 18 238 8.0 14.5 0.00 0.00 0.00 79 1025.6
20260506041038 18 236 9.7 14.5 0.00 0.00 0.00 78 1025.6
20260506040538 18 238 8.0 12.9 0.00 0.00 0.00 78 1025.6
20260506040051 18 238 9.7 12.9 0.00 0.00 0.00 77 1025.6
20260506035541 18 251 8.0 14.5 0.00 0.00 0.00 77 1025.5
20260506035039 19 250 8.0 17.7 0.00 0.00 0.00 76 1025.5
20260506034553 19 243 9.7 17.7 0.00 0.00 0.00 75 1025.6
20260506034038 19 255 11.3 17.7 0.00 0.00 0.00 75 1025.6
20260506033539 19 252 11.3 19.3 0.00 0.00 0.00 75 1025.6
20260506033054 19 243 11.3 19.3 0.00 0.00 0.00 75 1025.7
20260506032543 19 238 9.7 16.1 0.00 0.00 0.00 75 1025.7
20260506032039 19 248 11.3 16.1 0.00 0.00 0.00 75 1025.6
20260506031549 19 249 9.7 17.7 0.00 0.00 0.00 75 1025.6
20260506031038 19 232 9.7 17.7 0.00 0.00 0.00 76 1025.6
20260506030538 19 241 12.9 17.7 0.00 0.00 0.00 75 1025.6
20260506030048 19 239 11.3 19.3 0.00 0.00 0.00 74 1025.5
20260506025539 19 238 11.3 19.3 0.00 0.00 0.00 75 1025.6
20260506025038 19 253 9.7 17.7 0.00 0.00 0.00 74 1025.6
20260506024546 20 256 11.3 19.3 0.00 0.00 0.00 73 1025.4
20260506024036 20 254 11.3 25.7 0.00 0.00 0.00 73 1025.5
20260506023539 20 242 11.3 25.7 0.00 0.00 0.00 74 1025.5
20260506023049 19 235 12.9 25.7 0.00 0.00 0.00 73 1025.4
20260506022538 20 264 12.9 20.9 0.00 0.00 0.00 74 1025.5
20260506022036 20 238 9.7 22.5 0.00 0.00 0.00 74 1025.5
20260506021540 20 249 11.3 22.5 0.00 0.00 0.00 75 1025.4
20260506021038 19 261 12.9 22.5 0.00 0.00 0.00 74 1025.5
20260506020539 20 242 11.3 22.5 0.00 0.00 0.00 74 1025.6
20260506020053 19 242 14.5 24.1 0.00 0.00 0.00 75 1025.5
20260506015539 20 257 14.5 24.1 0.00 0.00 0.00 73 1025.6
20260506015039 20 247 9.7 22.5 0.00 0.00 0.00 74 1025.7
20260506014545 20 257 11.3 22.5 0.00 0.00 0.00 75 1025.6
20260506014039 20 315 12.9 22.5 0.00 0.00 0.00 73 1025.5
20260506013539 20 265 11.3 22.5 0.00 0.00 0.00 74 1025.5
20260506013053 20 271 8.0 20.9 0.00 0.00 0.00 73 1025.6
20260506012541 20 306 9.7 25.7 0.00 0.00 0.00 74 1025.8
20260506012041 20 261 12.9 25.7 0.00 0.00 0.00 74 1025.9
20260506011546 20 274 11.3 22.5 0.00 0.00 0.00 74 1026.0
20260506011039 20 260 12.9 22.5 0.00 0.00 0.00 73 1025.9
20260506010539 20 273 11.3 22.5 0.00 0.00 0.00 73 1026.0
20260506010049 20 234 11.3 24.1 0.00 0.00 0.00 73 1026.0
20260506005538 19 307 14.5 25.7 0.00 0.00 0.00 72 1026.1
20260506005038 19 249 9.7 25.7 0.00 0.00 0.00 74 1026.1
20260506004547 19 254 9.7 20.9 0.00 0.00 0.00 72 1026.2
20260506004038 19 219 11.3 27.4 0.00 0.00 0.00 74 1026.3
20260506003539 18 244 17.7 27.4 0.00 0.00 0.00 73 1026.3
20260506003049 19 261 12.9 24.1 0.00 0.00 0.00 73 1026.3
20260506002539 20 244 16.1 24.1 0.00 0.00 0.00 72 1026.3
20260506002039 19 259 9.7 20.9 0.00 0.00 0.00 73 1026.5
20260506001555 19 285 8.0 20.9 0.00 0.00 0.00 73 1026.5
20260506001036 19 264 14.5 22.5 0.00 0.00 0.00 73 1026.5
20260506000538 19 225 11.3 22.5 0.00 0.00 0.00 72 1026.6
20260506000042 19 273 11.3 22.5 0.00 0.00 0.00 73 1026.6
20260505235539 19 253 9.7 19.3 0.00 0.00 0.00 73 1026.7
20260505235040 19 288 12.9 19.3 0.00 0.00 0.00 74 1026.8
20260505234548 19 280 8.0 17.7 0.00 0.00 0.00 76 1026.7
20260505234039 19 275 8.0 19.3 0.00 0.00 0.00 75 1026.7
20260505233541 18 273 12.9 19.3 0.00 0.00 0.00 75 1026.8
20260505233053 18 322 8.0 19.3 0.00 0.00 0.00 74 1026.7
20260505232539 18 259 9.7 20.9 0.00 0.00 0.00 75 1026.7
20260505232039 18 263 9.7 20.9 0.00 0.00 0.00 76 1026.7
20260505231548 18 306 11.3 17.7 0.00 0.00 0.00 75 1026.7
20260505231039 18 315 6.4 16.1 0.00 0.00 0.00 77 1026.8
20260505230538 18 302 8.0 16.1 0.00 0.00 0.00 76 1026.8
20260505230112 18 270 4.8 11.3 0.00 0.00 0.00 76 1026.8
20260505225540 18 278 4.8 11.3 0.00 0.00 0.00 77 1026.9
20260505225038 18 242 1.6 11.3 0.00 0.00 0.00 78 1027.0
20260505224550 18 58 4.8 11.3 0.00 0.00 0.00 79 1027.0
20260505224038 18 283 4.8 12.9 0.00 0.00 0.00 78 1027.2
20260505223539 17 285 4.8 12.9 0.00 0.00 0.00 79 1027.1
20260505223054 17 236 4.8 12.9 0.00 0.00 0.00 80 1027.1
20260505222538 17 252 6.4 12.9 0.00 0.00 0.00 81 1027.1
20260505222043 17 284 4.8 12.9 0.00 0.00 0.00 81 1027.3
20260505221555 17 298 4.8 12.9 0.00 0.00 0.00 82 1027.4
20260505221035 16 237 6.4 11.3 0.00 0.00 0.00 83 1027.3
20260505220539 16 277 6.4 11.3 0.00 0.00 0.00 84 1027.4
20260505220053 16 292 3.2 8.0 0.00 0.00 0.00 85 1027.5
20260505215539 16 231 3.2 8.0 0.00 0.00 0.00 86 1027.4
20260505215036 16 221 1.6 6.4 0.00 0.00 0.00 86 1027.4
20260505214550 15 239 3.2 6.4 0.00 0.00 0.00 86 1027.4
20260505214038 15 236 3.2 4.8 0.00 0.00 0.00 87 1027.5
20260505213539 15 250 1.6 3.2 0.00 0.00 0.00 87 1027.5
20260505213049 15 0 0.0 3.2 0.00 0.00 0.00 87 1027.5
20260505212540 15 0 0.0 1.6 0.00 0.00 0.00 87 1027.7
20260505212039 15 246 0.0 4.8 0.00 0.00 0.00 87 1027.7
20260505211549 14 0 0.0 4.8 0.00 0.00 0.00 87 1027.6
20260505211039 14 246 1.6 4.8 0.00 0.00 0.00 87 1027.7
20260505210538 14 248 1.6 4.8 0.00 0.00 0.00 87 1027.7
20260505210045 14 267 1.6 9.7 0.00 0.00 0.00 87 1027.7
20260505205539 14 259 3.2 9.7 0.00 0.00 0.00 87 1027.8
20260505205035 14 275 3.2 6.4 0.00 0.00 0.00 88 1027.7
20260505204542 13 269 1.6 4.8 0.00 0.00 0.00 89 1027.8
20260505204039 13 252 0.0 4.8 0.00 0.00 0.00 91 1027.6
20260505203538 13 0 0.0 4.8 0.00 0.00 0.00 93 1027.6
20260505203055 12 277 0.0 4.8 0.00 0.00 0.00 93 1027.7
20260505202539 12 0 0.0 0.0 0.00 0.00 0.00 94 1027.7
20260505202039 12 0 0.0 0.0 0.00 0.00 0.00 94 1027.7
20260505201551 11 0 0.0 0.0 0.00 0.00 0.00 94 1027.6
20260505201042 11 0 0.0 0.0 0.00 0.00 0.00 94 1027.6
20260505200539 11 0 0.0 0.0 0.00 0.00 0.00 94 1027.6
20260505200108 11 0 0.0 0.0 0.00 0.00 0.00 94 1027.6
20260505195544 11 0 0.0 0.0 0.00 0.00 0.00 94 1027.6
20260505195042 11 0 0.0 0.0 0.00 0.00 0.00 93 1027.7
20260505194549 11 0 0.0 0.0 0.00 0.00 0.00 93 1027.5
20260505194039 11 0 0.0 0.0 0.00 0.00 0.00 93 1027.5
20260505193539 10 0 0.0 0.0 0.00 0.00 0.00 93 1027.6
20260505193058 10 0 0.0 0.0 0.00 0.00 0.00 93 1027.5
20260505192538 10 0 0.0 0.0 0.00 0.00 0.00 93 1027.4
20260505192039 10 0 0.0 0.0 0.00 0.00 0.00 93 1027.5
20260505191557 10 0 0.0 0.0 0.00 0.00 0.00 93 1027.5
20260505191041 10 0 0.0 0.0 0.00 0.00 0.00 93 1027.4
20260505190543 10 0 0.0 0.0 0.00 0.00 0.00 93 1027.4
20260505190050 10 0 0.0 0.0 0.00 0.00 0.00 93 1027.4
20260505185539 10 0 0.0 0.0 0.00 0.00 0.00 93 1027.4
20260505185039 10 0 0.0 0.0 0.00 0.00 0.00 93 1027.5
20260505184548 10 0 0.0 0.0 0.00 0.00 0.00 93 1027.5
20260505184040 10 0 0.0 0.0 0.00 0.00 0.00 93 1027.4
20260505183541 10 0 0.0 0.0 0.00 0.00 0.00 93 1027.5
20260505183048 10 0 0.0 0.0 0.00 0.00 0.00 93 1027.5
20260505182540 10 197 0.0 0.0 0.00 0.00 0.00 93 1027.4
20260505182039 10 0 0.0 0.0 0.00 0.00 0.00 93 1027.5
20260505181554 10 0 0.0 3.2 0.00 0.00 0.00 92 1027.6
20260505181038 10 0 1.6 3.2 0.00 0.00 0.00 92 1027.5
20260505180538 10 195 0.0 1.6 0.00 0.00 0.00 93 1027.5
20260505180047 10 0 0.0 0.0 0.00 0.00 0.00 93 1027.5
20260505175539 10 0 0.0 0.0 0.00 0.00 0.00 93 1027.5
20260505175039 10 0 0.0 0.0 0.00 0.00 0.00 93 1027.6
20260505174557 10 0 0.0 0.0 0.00 0.00 0.00 93 1027.6
20260505174040 10 0 0.0 0.0 0.00 0.00 0.00 93 1027.7
20260505173538 11 0 0.0 1.6 0.00 0.00 0.00 93 1027.7
20260505173054 11 0 0.0 3.2 0.00 0.00 0.00 93 1027.7
20260505172538 11 0 0.0 3.2 0.00 0.00 0.00 93 1027.7
20260505172039 11 0 0.0 1.6 0.00 0.00 0.00 93 1027.7
20260505171546 11 0 0.0 1.6 0.00 0.00 0.00 93 1027.8
20260505171039 11 196 0.0 1.6 0.00 0.00 0.00 93 1027.8
20260505170538 11 0 0.0 0.0 0.00 0.00 0.00 93 1027.8
20260505170051 11 0 0.0 1.6 0.00 0.00 0.00 93 1027.8
20260505165543 11 0 0.0 1.6 0.00 0.00 0.00 93 1027.9
20260505165038 11 0 0.0 0.0 0.00 0.00 0.00 93 1028.0
20260505164551 11 0 0.0 1.6 0.00 0.00 0.00 93 1028.0
20260505164039 11 0 0.0 1.6 0.00 0.00 0.00 94 1027.9
20260505163538 11 195 0.0 1.6 0.00 0.00 0.00 94 1028.0
20260505163048 11 195 0.0 1.6 0.00 0.00 0.00 94 1027.9
20260505162538 10 195 0.0 1.6 0.00 0.00 0.00 94 1028.0
20260505162039 10 177 0.0 1.6 0.00 0.00 0.00 94 1028.0
20260505161548 10 0 0.0 3.2 0.00 0.00 0.00 94 1028.1
20260505161039 10 0 0.0 3.2 0.00 0.00 0.00 94 1028.0
20260505160539 10 178 0.0 3.2 0.00 0.00 0.00 94 1028.0
20260505153051 10 177 0.0 1.6 0.00 0.00 0.00 93 1028.2
20260505152538 10 177 0.0 1.6 0.00 0.00 0.00 93 1028.1
20260505152039 10 176 0.0 1.6 0.00 0.00 0.00 93 1028.1
20260505151547 10 0 0.0 1.6 0.00 0.00 0.00 93 1028.2
20260505151039 10 0 0.0 0.0 0.00 0.00 0.00 93 1028.3
20260505150540 10 0 0.0 0.0 0.00 0.00 0.00 93 1028.3
20260505140539 10 0 0.0 1.6 0.00 0.00 0.00 93 1028.9
20260505130112 10 90 0.0 3.2 0.00 0.00 0.00 94 1029.3
20260505124556 10 73 1.6 6.4 0.00 0.00 0.00 94 1029.5
20260505124041 10 65 0.0 3.2 0.00 0.00 0.00 95 1029.6
20260505123540 9 105 1.6 3.2 0.00 0.00 0.00 95 1029.4
20260505123105 9 0 0.0 1.6 0.00 0.00 0.00 95 1029.5
20260505122539 9 105 0.0 3.2 0.00 0.00 0.00 95 1029.6
20260505122039 9 105 1.6 3.2 0.00 0.00 0.00 95 1029.8
20260505121549 9 101 0.0 3.2 0.00 0.00 0.00 95 1029.8
20260505121039 8 101 0.0 3.2 0.00 0.00 0.00 95 1029.8
20260505120539 8 101 1.6 3.2 0.00 0.00 0.00 95 1029.8
20260505120049 8 101 0.0 1.6 0.00 0.00 0.00 95 1029.9
20260505115539 8 101 0.0 1.6 0.00 0.00 0.00 95 1029.8
20260505115040 8 0 0.0 1.6 0.00 0.00 0.00 95 1029.8
20260505114551 8 0 0.0 1.6 0.00 0.00 0.00 95 1029.8
20260505114041 8 101 0.0 1.6 0.00 0.00 0.00 95 1029.9
20260505113538 8 0 0.0 3.2 0.00 0.00 0.00 95 1029.9
20260505113100 8 0 0.0 3.2 0.00 0.00 0.00 95 1030.0
20260505112540 8 101 1.6 3.2 0.00 0.00 0.00 95 1030.0
20260505112041 8 0 0.0 3.2 0.00 0.00 0.00 95 1030.1
20260505111549 8 101 1.6 3.2 0.00 0.00 0.00 95 1030.0
20260505111040 7 0 0.0 1.6 0.00 0.00 0.00 95 1030.0
20260505110540 7 100 0.0 1.6 0.00 0.00 0.00 95 1030.1
20260505102039 6 0 0.0 1.6 0.00 0.00 0.00 94 1030.7
20260505101552 6 0 0.0 1.6 0.00 0.00 0.00 94 1030.7
20260505101037 6 86 0.0 1.6 0.00 0.00 0.00 93 1030.6
20260505100540 6 0 0.0 0.0 0.00 0.00 0.00 95 1030.8
20260505100051 6 0 0.0 0.0 0.00 0.00 0.00 93 1030.7
20260505095540 6 0 0.0 0.0 0.00 0.00 0.00 93 1030.7
20260505095038 7 0 0.0 0.0 0.00 0.00 0.00 94 1030.7
20260505094601 7 0 0.0 0.0 0.00 0.00 0.00 94 1030.7
20260505094036 7 0 0.0 0.0 0.00 0.00 0.00 94 1030.6
20260505093540 6 0 0.0 1.6 0.00 0.00 0.00 94 1030.6
20260505093054 6 0 0.0 1.6 0.00 0.00 0.00 94 1030.6
20260505092539 6 86 0.0 3.2 0.00 0.00 0.00 93 1030.7
20260505092037 6 0 0.0 3.2 0.00 0.00 0.00 93 1030.7
20260505091544 6 86 1.6 3.2 0.00 0.00 0.00 92 1030.6
20260505091037 7 0 0.0 3.2 0.00 0.00 0.00 93 1030.6
20260505090539 7 0 0.0 3.2 0.00 0.00 0.00 93 1030.4
20260505090046 7 80 1.6 3.2 0.00 0.00 0.00 93 1030.3
20260505085540 7 59 1.6 3.2 0.00 0.00 0.00 93 1030.2
20260505085040 7 56 1.6 4.8 0.00 0.00 0.00 93 1030.3
20260505084556 7 56 3.2 4.8 0.00 0.00 0.00 92 1030.3
20260505084040 7 56 3.2 3.2 0.00 0.00 0.00 93 1030.3
20260505083539 7 56 3.2 3.2 0.00 0.00 0.00 92 1030.3
20260505083059 7 56 3.2 4.8 0.00 0.00 0.00 93 1030.4
20260505082539 7 56 3.2 4.8 0.00 0.00 0.00 93 1030.4
20260505082040 7 57 3.2 4.8 0.00 0.00 0.00 92 1030.5
20260505081558 7 56 4.8 4.8 0.00 0.00 0.00 92 1030.6
20260505081037 7 60 3.2 4.8 0.00 0.00 0.00 92 1030.6
20260505080539 7 60 3.2 4.8 0.00 0.00 0.00 91 1030.5
20260505080052 7 60 3.2 4.8 0.00 0.00 0.00 90 1030.7
20260505075538 7 55 1.6 6.4 0.00 0.00 0.00 89 1030.6
20260505075036 7 56 4.8 6.4 0.00 0.00 0.00 88 1030.6
20260505074546 8 59 0.0 3.2 0.00 0.00 0.00 88 1030.6
20260505074042 8 59 1.6 3.2 0.00 0.00 0.00 87 1030.7
20260505073609 9 59 0.0 3.2 0.00 0.00 0.00 86 1030.7
20260505073051 10 0 0.0 0.0 0.00 0.00 0.00 89 1030.8
20260505072540 10 0 0.0 0.0 0.00 0.00 0.00 89 1030.8
20260505072040 10 0 0.0 0.0 0.00 0.00 0.00 89 1030.8
20260505071551 10 0 0.0 0.0 0.00 0.00 0.00 89 1030.8
20260505071040 10 0 0.0 0.0 0.00 0.00 0.00 89 1030.7
20260505070540 10 0 0.0 0.0 0.00 0.00 0.00 89 1030.7
20260505070052 10 0 0.0 0.0 0.00 0.00 0.00 89 1030.8
20260505065540 10 0 0.0 0.0 0.00 0.00 0.00 89 1030.8